Wind_Gust
23 23 22 22 22 21 21 20 20 19 19 18 18 18 18 19 19 19 19 19 19 17 18 17 17 17 17 18 17 17 18 23 19 22 20 17 11 7 7 9 7 12 12 20 20 19 17 16 18 17 20 19 20 23 22 23 21 20 28 28 29 27 28 23 29 27 24 32 30 17 18 16 20 20 24 20 24 24 25 28 28 24 27 26 22 22 28 30
23 23 23 23 22 22 21 21 20 19 19 19 18 19 20 19 19 19 19 19 18 19 17 17 17 17 17 17 17 15 21 21 23 18 18 11 8 8 6 6 9 12 16 23 23 21 17 18 16 15 20 22 16 22 19 25 20 25 24 27 28 25 26 24 23 19 23 26 31 17 21 14 19 18 20 24 20 24 27 27 25 29 27 25 25 27 26 26
23 23 23 23 23 22 22 21 20 20 20 19 19 20 20 20 20 19 20 19 18 17 17 17 17 17 18 16 14 14 21 23 24 20 17 7 6 4 4 9 10 13 21 22 23 18 17 19 16 17 19 23 20 20 20 23 21 23 25 26 26 25 29 26 15 19 17 18 20 23 20 19 17 18 18 24 22 22 25 25 24 27 24 24 24 26 29 31
23 23 24 24 23 22 22 21 21 20 20 20 20 20 21 21 20 20 20 19 18 17 17 17 16 16 17 17 13 23 20 25 18 18 18 8 3 4 8 9 12 17 22 24 20 17 15 14 15 17 19 23 19 20 22 22 23 21 27 27 26 25 24 19 15 17 19 18 18 20 19 21 19 21 22 21 24 25 25 23 26 27 23 24 28 31 27 14
24 24 24 23 23 23 23 21 21 21 21 20 20 21 21 22 22 22 20 19 18 17 17 16 16 16 15 16 16 21 19 22 21 18 16 8 6 7 9 11 12 20 19 20 16 17 14 17 16 16 20 25 21 17 24 20 21 22 21 21 27 28 16 21 19 16 15 17 19 19 21 23 20 24 24 25 28 26 21 22 25 28 26 24 19 18 17 18
23 24 24 24 23 24 22 22 21 21 21 21 21 21 22 22 22 21 20 19 18 17 16 16 15 15 14 12 22 18 19 13 16 19 8 6 6 7 10 12 15 21 19 20 19 15 15 16 16 19 20 20 20 23 21 23 14 24 20 25 27 27 20 15 15 14 11 19 20 19 19 19 20 21 20 23 28 26 25 25 25 22 21 24 22 25 18 13
25 25 25 24 24 24 23 22 22 21 21 21 22 22 24 23 23 21 20 19 18 16 16 15 14 15 14 14 24 19 21 24 14 18 11 8 7 8 11 14 17 23 22 24 21 19 17 18 18 18 21 18 20 20 16 15 14 21 29 22 19 16 17 20 19 15 14 15 18 18 18 21 18 21 17 23 20 21 23 24 26 27 24 22 23 22 17 16
26 26 25 25 25 24 23 23 22 22 22 22 23 24 24 24 23 22 21 19 18 17 15 14 13 13 12 20 18 21 20 20 19 17 10 8 14 16 14 18 19 16 18 13 14 15 13 17 18 14 21 21 20 18 14 18 18 22 26 23 22 18 16 19 19 18 16 16 17 17 20 19 18 21 19 21 20 19 20 19 20 22 19 20 19 17 16 16
27 26 26 26 25 24 23 23 23 22 22 22 23 24 24 24 23 21 20 19 18 17 15 13 12 10 7 16 21 22 20 18 14 16 19 18 13 14 14 22 17 16 12 14 9 13 19 13 15 14 19 17 16 20 12 19 26 25 23 22 14 16 15 17 16 18 19 20 17 19 21 20 22 20 23 21 22 22 20 20 19 19 17 17 18 20 19 19
27 27 26 26 25 25 24 23 24 23 23 23 23 24 25 23 22 20 19 18 17 16 15 13 12 9 16 19 20 23 19 12 12 13 12 11 10 12 16 16 13 15 18 13 15 15 16 17 17 16 15 21 16 17 14 17 19 16 16 15 17 18 18 15 18 19 18 19 17 22 21 22 21 20 25 21 22 22 23 20 17 17 16 15 17 18 17 20
28 28 27 26 26 26 24 24 24 23 23 23 23 24 24 22 20 19 17 16 15 14 14 13 9 11 19 19 25 20 14 15 10 13 9 9 11 14 14 12 11 18 15 12 14 12 13 15 14 15 18 17 13 17 17 19 17 15 16 18 20 20 21 19 18 20 20 23 22 23 23 23 25 23 24 20 16 13 17 17 16 13 15 16 14 14 15 18
28 28 28 27 27 26 25 25 24 24 23 23 23 23 23 21 19 17 17 15 14 13 12 12 9 18 19 24 21 21 12 10 11 11 11 12 16 11 9 11 11 14 14 18 11 9 12 15 14 17 21 15 22 15 19 12 15 15 16 23 21 22 26 20 21 20 14 21 15 17 21 25 25 26 21 21 19 17 15 15 14 15 12 13 13 15 17 19
28 28 28 28 27 26 26 25 25 25 24 22 22 21 21 19 17 16 15 15 13 14 11 8 11 19 20 16 21 16 12 13 11 9 11 12 11 11 9 8 12 10 13 15 15 9 9 14 13 18 15 18 15 23 18 15 16 17 19 21 21 22 25 21 14 13 16 14 12 11 27 25 30 23 24 22 15 14 13 14 13 12 14 13 12 13 13 14
29 28 29 28 28 27 27 26 25 25 23 22 22 20 19 16 15 15 14 14 15 11 10 9 17 20 19 22 17 10 12 11 12 19 9 10 18 16 12 9 10 13 9 15 10 13 14 11 14 17 14 19 19 14 18 18 16 25 17 19 24 24 29 25 21 18 20 20 13 14 26 27 26 24 21 20 17 15 16 14 13 14 15 15 14 14 16 11
29 29 29 29 29 29 28 27 25 24 24 22 21 19 17 14 12 15 14 13 14 13 9 9 19 17 18 22 13 13 8 17 16 13 11 19 12 17 15 11 14 9 11 9 15 10 12 14 17 20 22 14 18 20 20 20 20 19 21 23 21 25 30 23 17 17 19 21 13 16 25 18 21 20 16 14 14 13 16 16 15 15 17 17 16 16 16 15
29 29 29 29 29 29 29 28 26 23 23 22 20 20 17 10 11 11 15 14 16 12 18 17 20 21 28 21 18 14 19 20 17 15 15 19 12 17 13 14 14 12 14 16 11 11 14 16 22 18 23 20 22 24 23 22 21 21 21 17 16 21 18 21 20 16 14 14 15 19 26 19 14 20 20 19 11 13 16 16 16 14 15 19 16 15 16 16
30 29 29 29 28 29 29 28 27 24 23 21 21 20 13 12 11 11 12 14 17 17 17 21 20 23 18 23 18 19 18 15 15 17 12 12 15 14 14 15 18 14 11 11 13 14 15 20 14 20 17 24 19 21 20 15 14 19 13 15 17 18 15 20 21 20 15 13 18 15 21 18 20 19 29 26 21 15 18 18 17 18 17 17 17 18 17 16
30 30 29 28 28 29 29 29 28 24 22 24 21 17 20 8 9 12 17 14 20 21 21 23 24 21 25 18 20 19 15 12 11 13 11 13 12 16 14 15 11 15 14 17 16 20 16 21 17 21 17 12 14 17 17 14 20 17 16 15 15 17 15 22 20 24 16 15 17 19 23 22 23 22 21 20 16 17 18 19 18 20 20 20 20 19 18 18
30 30 29 28 28 28 28 29 29 25 21 24 28 15 15 13 18 19 20 18 18 17 18 20 22 17 21 17 14 13 15 14 13 18 20 14 14 13 17 11 14 16 20 19 24 17 21 20 18 17 18 14 17 18 20 19 17 19 18 20 19 20 20 23 16 23 14 18 20 21 25 22 20 20 21 19 18 20 20 20 21 21 20 21 22 21 19 18
30 30 29 29 28 27 29 28 29 26 21 22 24 15 15 15 16 16 20 20 23 22 20 17 13 12 16 16 15 18 13 12 21 12 13 11 18 16 17 19 23 20 19 22 20 18 14 20 15 15 16 15 14 14 17 18 17 18 18 20 22 21 19 17 20 21 20 18 21 23 23 23 23 23 22 22 21 22 21 22 22 21 22 23 23 23 24 22
31 30 30 29 29 29 27 28 27 29 25 21 21 20 17 22 20 21 17 20 15 13 21 16 15 17 21 14 14 20 17 24 17 20 16 16 17 16 23 27 24 19 14 17 19 22 19 19 14 14 14 14 16 14 14 17 16 18 19 19 23 20 22 23 26 12 10 15 20 19 21 22 23 22 23 22 22 23 23 21 21 20 19 17 19 25 25 24
31 30 30 29 29 28 27 26 27 25 29 23 20 19 17 18 15 15 18 20 15 11 12 11 11 18 17 10 12 15 16 26 18 15 14 18 16 28 18 21 17 17 15 17 16 20 20 16 16 14 13 14 16 16 14 17 18 18 22 20 21 20 21 24 25 21 17 18 22 20 23 24 24 23 23 21 20 19 16 14 18 20 20 20 21 22 21 22
31 31 30 30 28 27 27 27 24 24 23 21 18 17 18 16 13 14 16 25 23 15 17 14 20 15 15 12 16 16 18 20 16 16 17 16 22 23 17 19 15 17 14 15 15 14 19 17 15 12 13 15 19 18 14 18 20 21 21 20 20 20 22 20 18 17 16 24 24 22 25 26 24 25 28 21 18 17 19 23 21 21 20 20 21 21 20 19
30 31 31 30 30 26 27 26 26 20 15 15 18 18 15 15 16 17 18 19 18 18 19 14 13 14 16 22 18 19 21 22 22 20 15 21 24 19 27 20 16 21 18 15 15 19 20 17 13 13 13 14 17 14 16 18 19 16 23 22 21 16 19 21 23 23 23 25 27 27 30 25 28 29 24 21 17 16 18 20 19 20 20 18 17 18 19 19
32 32 32 31 30 31 24 26 15 14 13 14 17 15 16 16 14 15 17 17 27 23 14 17 16 15 18 14 15 30 17 16 17 13 13 16 22 25 21 18 20 17 20 12 13 16 18 16 14 11 11 14 14 16 15 19 21 18 20 24 19 18 19 20 20 22 23 20 25 23 24 20 21 21 17 16 20 20 19 19 20 18 19 20 18 19 19 18
31 31 32 29 30 32 27 14 14 22 18 15 16 17 15 16 15 14 18 20 15 20 21 16 16 14 19 15 16 16 17 18 14 20 18 18 17 20 21 19 20 17 14 15 19 20 17 13 14 15 14 14 13 14 15 18 20 24 17 18 19 20 21 20 21 22 22 18 25 20 22 17 24 28 24 16 18 19 19 17 20 20 21 22 22 21 21 21
31 31 31 29 26 27 19 18 23 23 15 16 18 15 16 15 13 13 17 19 15 17 15 22 19 22 23 14 20 15 22 17 14 13 20 18 21 13 21 16 17 17 18 15 21 19 13 16 17 13 13 16 14 16 19 18 22 18 18 17 18 19 20 19 20 20 23 17 27 24 27 22 25 23 16 16 20 17 18 18 18 22 22 21 21 21 21 23
29 31 32 28 26 14 15 20 22 18 19 17 16 16 14 14 12 12 17 17 15 14 13 17 20 17 20 16 14 23 20 14 20 17 17 12 17 21 25 16 18 15 17 18 16 19 19 14 17 17 15 18 20 17 16 15 22 24 19 19 20 19 18 18 19 17 15 17 16 24 28 24 20 22 19 22 17 18 19 19 19 23 23 22 24 24 23 23
29 31 31 28 31 22 17 16 16 17 18 16 16 16 16 10 14 18 14 15 18 15 15 15 17 15 17 13 22 13 14 19 17 14 15 16 15 20 17 16 15 16 16 18 21 17 16 15 15 16 19 20 17 14 14 15 21 16 21 23 24 20 18 16 16 16 11 16 13 14 17 25 21 22 21 19 20 19 22 22 23 26 25 25 26 24 24 23
30 29 29 26 27 15 14 14 17 14 14 16 15 15 11 13 16 15 15 10 16 14 16 17 18 19 17 26 22 13 16 14 14 14 15 24 14 18 15 13 17 15 15 18 20 17 16 11 13 21 20 19 18 18 15 16 17 21 25 26 22 19 21 16 15 14 12 10 19 15 15 19 18 24 24 20 25 25 26 25 26 28 27 27 26 26 27 28
29 30 25 23 18 20 21 16 19 20 16 14 16 13 13 16 17 17 11 15 16 22 20 14 19 15 17 15 18 15 14 15 13 16 19 17 14 18 15 19 16 18 16 16 17 18 17 16 20 16 13 21 20 25 17 16 19 21 21 20 14 18 20 19 15 20 13 13 13 15 15 16 15 17 17 20 20 24 27 27 29 30 29 30 27 28 28 26
28 28 24 20 19 21 18 19 21 18 16 15 14 15 15 17 23 15 10 14 17 16 15 19 15 17 18 10 14 15 12 14 15 21 15 17 15 17 21 15 16 15 17 14 17 17 19 17 15 13 11 22 24 24 19 17 20 21 22 22 18 19 22 13 20 13 16 17 16 15 15 18 19 16 19 19 23 26 26 29 29 30 31 29 29 29 28 27
29 24 29 24 17 16 19 18 16 13 12 13 14 16 17 14 11 14 12 15 7 17 15 13 16 16 14 17 19 12 13 15 13 16 15 13 14 17 14 18 13 16 15 16 18 23 18 14 15 11 13 20 21 24 20 20 23 23 26 25 21 13 15 12 16 14 15 15 16 16 14 21 18 16 22 24 25 27 28 27 28 29 30 30 30 29 29 28
31 26 20 11 17 21 17 15 13 14 13 12 16 17 16 14 12 9 12 16 14 8 10 13 15 13 14 19 17 13 18 13 17 16 16 13 12 11 14 17 18 11 24 23 18 16 12 14 20 19 17 17 19 19 18 20 24 22 18 21 17 20 16 13 19 14 14 16 16 18 13 18 19 16 21 25 27 28 30 31 30 29 28 28 29 29 29 27
35 26 18 19 20 23 20 17 12 11 14 17 18 22 13 11 14 16 13 14 14 12 11 13 15 14 16 13 11 16 17 15 12 14 11 10 13 13 14 18 17 19 15 17 17 19 19 17 16 14 12 13 18 18 17 19 22 17 20 15 19 19 14 14 16 15 15 13 14 19 17 17 22 20 22 28 30 30 33 32 31 30 30 31 31 30 30 29
24 14 16 20 21 16 13 14 10 13 16 18 21 15 12 16 14 15 16 15 10 15 17 16 12 16 14 14 12 14 23 23 15 13 13 13 12 15 12 16 18 18 19 16 15 12 16 15 15 13 11 13 15 18 22 24 19 19 21 22 20 14 18 9 13 13 15 19 16 11 16 21 20 14 23 30 31 32 31 31 32 31 30 32 30 31 30 29
20 20 19 17 16 19 12 13 12 15 17 20 18 11 14 16 16 14 14 16 14 14 16 12 17 19 15 15 13 10 13 16 13 18 14 13 17 11 11 14 16 15 17 19 12 17 14 15 26 23 13 13 9 13 19 22 23 17 20 19 12 15 16 16 12 9 15 15 11 14 16 14 20 18 27 28 33 35 34 34 34 32 30 32 31 31 32 30
21 19 19 18 19 17 12 14 13 17 21 21 18 9 11 13 16 15 12 14 10 11 15 9 11 14 15 14 13 9 14 22 19 16 13 13 13 15 15 15 13 16 17 14 17 16 19 14 15 11 12 14 15 16 17 20 21 21 17 13 19 10 11 13 15 10 14 15 16 14 15 18 23 24 30 33 37 37 35 33 36 34 32 30 30 31 29 29
20 17 16 17 19 18 13 12 15 19 21 18 12 12 14 17 14 13 13 14 9 12 15 12 16 11 15 13 16 11 11 19 13 14 13 13 11 13 16 17 14 12 16 17 19 18 12 14 15 15 15 12 14 17 13 16 17 14 13 17 12 18 13 12 15 11 16 14 16 17 21 16 21 26 26 29 31 31 31 31 33 33 31 31 31 30 30 31
20 24 13 14 22 16 11 13 18 23 21 11 11 17 13 13 16 12 15 15 12 15 12 11 9 14 12 13 18 12 12 17 13 14 16 14 14 13 15 16 16 13 19 16 17 12 15 11 10 19 19 17 18 22 17 16 16 16 16 18 16 14 13 17 13 15 14 16 17 19 21 19 17 23 24 25 28 29 29 31 31 30 30 29 28 29 28 30
20 23 16 16 23 15 14 18 22 17 16 16 14 14 13 14 10 11 12 11 17 11 17 13 13 13 13 12 14 10 13 13 12 15 12 16 14 11 16 17 13 15 17 16 12 15 13 13 14 13 16 14 17 18 15 15 15 15 14 14 16 13 12 12 10 12 16 16 17 19 20 19 13 23 23 24 24 26 28 27 27 26 29 28 28 27 29 29
20 21 18 19 20 16 18 21 17 15 13 16 18 17 15 11 9 12 11 9 11 14 10 15 10 15 11 14 13 10 15 16 9 13 12 18 15 17 15 13 14 14 20 15 13 16 16 17 18 14 13 17 19 15 13 13 11 15 15 13 11 12 13 13 15 16 18 16 19 20 20 17 15 23 22 23 25 25 23 24 25 24 24 25 28 27 29 31
17 19 13 14 18 17 22 19 14 13 17 16 13 14 10 10 11 11 16 13 13 10 12 10 12 12 11 15 16 16 10 20 13 14 19 14 29 24 17 11 13 15 16 22 13 17 14 15 13 16 14 17 15 13 12 10 11 13 14 12 12 13 14 15 14 16 16 15 16 19 17 17 20 24 23 25 24 24 24 24 25 25 24 28 27 28 29 30
19 21 14 15 17 13 21 15 14 11 16 13 10 13 10 13 13 19 17 12 17 10 8 11 11 13 11 13 15 13 13 14 11 18 15 12 17 16 17 9 14 16 15 15 14 16 15 12 17 13 13 15 16 15 21 25 14 14 14 13 12 11 10 13 14 13 13 12 14 21 19 20 26 25 25 27 28 27 27 27 24 26 25 27 28 29 29 30
25 23 23 16 20 17 21 19 19 11 15 11 10 9 12 11 11 12 13 13 11 14 10 10 11 10 14 12 16 14 9 13 18 13 15 16 17 14 15 12 12 16 12 14 10 16 15 14 16 13 14 14 14 12 8 8 11 13 10 10 10 11 11 14 13 11 16 12 17 20 22 21 25 25 25 27 30 30 27 28 27 24 23 28 28 29 30 30
16 16 18 15 16 16 17 10 17 18 13 12 6 9 10 11 16 11 14 13 11 14 12 12 13 12 11 11 14 12 12 11 14 11 15 14 14 24 13 13 9 14 12 10 12 13 12 14 16 15 15 16 14 14 12 12 12 9 10 11 9 8 10 13 15 17 17 16 19 10 15 26 28 28 29 31 31 31 31 30 30 29 27 27 26 29 30 29
19 21 18 16 19 18 14 13 14 13 12 12 9 9 9 9 11 15 11 11 9 9 10 11 11 12 8 9 12 11 11 9 13 14 14 15 11 23 14 9 10 11 9 11 9 12 15 16 12 14 15 15 16 14 13 11 13 13 12 10 10 10 10 12 14 17 15 18 18 20 22 22 26 26 27 31 32 30 28 28 28 28 26 28 28 28 26 32
18 16 12 13 13 14 18 12 16 15 11 13 12 10 12 9 10 9 14 10 12 12 9 9 10 9 9 10 10 11 10 10 10 11 10 15 16 17 22 13 12 11 14 13 9 13 16 15 14 14 16 16 15 16 14 14 13 14 14 12 12 11 10 12 13 13 13 16 23 21 22 23 24 23 27 29 30 29 29 29 26 24 25 27 29 29 30 35
21 18 11 11 16 14 14 15 12 12 11 12 13 11 9 9 9 10 14 10 11 11 15 8 10 11 10 11 11 13 10 11 9 12 13 13 13 17 15 15 13 14 14 13 11 10 17 17 14 14 17 17 18 17 15 15 13 14 15 14 12 12 11 12 13 14 15 16 18 20 21 23 20 23 27 29 27 27 28 26 25 25 27 28 29 28 29 32
20 20 15 13 14 19 10 12 13 11 14 11 11 12 9 8 10 10 15 11 6 11 9 13 11 11 11 12 13 15 9 11 14 16 12 11 13 16 13 13 13 16 15 13 12 8 13 10 12 16 13 18 16 15 15 14 15 16 15 16 16 15 14 13 12 13 13 16 15 20 21 23 20 23 26 27 26 26 26 26 25 24 26 28 28 28 29 32
15 15 14 20 21 14 11 14 13 13 11 14 17 16 11 9 9 11 12 11 11 10 10 10 8 10 10 12 13 15 13 11 11 12 10 12 15 11 13 13 16 11 13 15 13 12 12 17 16 17 16 15 15 15 16 15 17 19 18 17 17 17 18 17 15 13 12 12 17 19 22 24 26 25 26 25 27 27 28 27 25 26 25 27 28 27 29 30
13 11 12 15 20 9 19 11 13 11 12 9 13 11 11 10 7 7 11 10 13 12 11 11 7 13 11 15 13 14 12 14 14 14 15 17 18 18 15 18 17 17 16 16 10 18 15 18 16 14 18 17 14 14 15 16 18 20 20 22 20 18 21 19 15 13 12 10 13 21 22 26 28 28 29 28 27 27 27 26 25 25 25 26 27 27 28 29
Wind_Speed
18 18 18 18 17 17 17 16 16 15 15 14 14 15 15 15 15 15 15 15 15 14 14 14 14 14 14 14 14 14 14 9 10 8 10 4 2 3 3 5 6 6 7 9 11 10 9 9 10 9 9 8 8 9 10 12 9 7 9 9 11 10 12 10 12 11 11 13 18 8 10 8 6 6 4 4 11 8 11 11 10 15 12 6 7 4 18 16
19 18 18 18 17 17 17 16 16 15 15 15 15 15 16 15 15 15 15 15 15 15 14 14 14 14 14 13 13 12 12 11 11 7 6 4 3 2 4 5 6 5 5 10 12 12 9 10 9 8 8 8 8 9 10 8 8 8 8 9 10 10 11 12 12 11 8 11 21 5 14 4 7 10 8 9 10 8 3 6 9 12 13 10 12 11 11 16
18 18 18 18 18 18 17 16 16 16 15 15 16 16 16 16 15 16 16 15 15 14 14 13 13 13 14 12 10 11 10 9 12 2 5 3 4 3 3 6 8 7 6 11 13 10 8 9 9 8 8 9 8 8 8 5 9 10 9 10 10 12 14 15 7 10 10 10 12 14 11 7 5 2 2 8 11 12 8 6 10 9 9 13 11 12 11 12
18 18 19 19 18 18 17 17 16 16 16 16 16 15 16 16 16 16 16 16 14 14 13 14 13 13 13 13 10 11 9 12 3 7 7 4 2 2 5 6 9 10 11 13 12 9 8 7 8 6 8 9 8 10 9 8 7 8 10 9 11 8 3 10 4 7 10 11 10 11 10 8 6 8 7 7 9 10 10 10 13 17 14 7 9 7 11 7
19 19 19 18 18 17 17 16 17 17 17 16 16 16 16 18 17 17 16 15 15 14 13 13 13 12 13 12 11 9 9 8 7 6 6 4 4 4 6 8 10 10 10 12 8 9 6 7 8 8 8 8 11 9 9 10 9 8 8 8 11 16 7 10 11 10 8 8 10 10 11 10 10 10 10 10 11 9 9 10 7 9 10 11 11 6 7 11
18 19 18 19 18 18 17 16 17 17 17 17 17 17 17 18 18 17 16 15 14 14 13 12 12 12 12 10 11 9 6 3 4 7 6 4 4 6 7 9 12 11 11 11 10 8 7 7 7 7 7 8 11 8 9 13 7 8 9 10 12 15 11 6 7 8 3 7 11 11 10 10 9 10 9 10 10 8 9 12 12 12 11 15 13 15 3 6
20 20 20 19 19 18 18 16 18 17 17 17 17 18 20 19 18 17 16 15 14 13 12 11 11 12 11 12 8 8 8 5 5 7 7 5 5 4 9 10 12 13 14 14 12 8 9 10 8 8 9 9 11 8 5 5 4 4 9 11 12 8 7 6 11 9 6 5 7 9 9 11 11 10 7 11 11 13 13 12 12 12 8 9 12 9 9 7
21 20 20 19 19 19 18 18 18 18 17 17 19 19 20 19 19 18 16 15 14 13 11 10 10 10 10 8 6 7 9 6 8 10 8 6 9 9 10 10 11 9 10 6 6 6 5 7 8 5 7 10 2 3 1 1 4 10 10 11 13 10 4 7 11 10 7 6 7 7 10 11 10 10 9 12 12 6 5 7 8 10 8 7 6 5 6 4
21 21 20 20 19 19 19 18 18 18 18 18 18 19 20 19 19 17 16 15 14 13 10 8 7 8 4 5 7 9 5 6 7 10 10 9 7 8 8 10 10 9 5 6 3 6 4 5 7 3 8 6 8 9 4 3 9 8 12 14 4 5 7 3 7 8 10 7 6 9 11 10 11 11 12 10 13 9 6 6 9 10 5 8 7 7 6 7
21 21 21 20 20 19 19 19 19 19 18 19 19 19 19 18 17 16 15 14 13 12 9 7 7 5 7 6 7 8 6 4 5 6 7 3 3 7 8 9 5 8 8 1 5 7 7 6 10 7 6 11 7 8 8 2 6 7 10 8 9 7 8 8 8 8 8 8 8 11 10 11 9 8 8 10 12 9 13 13 8 3 8 1 5 6 5 6
22 22 21 21 21 20 19 19 19 19 19 18 19 19 19 18 16 16 14 13 12 10 8 7 3 5 5 8 9 3 2 9 2 5 4 4 3 6 7 6 4 8 8 4 5 6 4 7 8 5 6 4 5 7 6 8 7 6 7 10 11 10 9 10 10 11 7 8 9 12 13 11 13 10 9 10 5 2 7 7 5 4 6 7 4 5 6 8
23 23 21 21 21 21 20 20 19 19 18 18 19 18 18 17 15 13 14 12 11 9 7 5 3 4 7 9 7 6 2 2 0 4 4 4 8 2 2 4 4 7 5 9 2 1 5 6 6 7 6 6 8 8 7 5 4 7 8 9 10 13 12 10 11 11 7 8 7 6 9 10 10 13 12 12 11 11 1 5 4 9 4 5 7 5 4 4
23 23 23 22 21 21 21 20 20 19 19 18 17 17 17 15 14 12 12 12 8 8 5 1 5 5 6 7 6 3 5 3 4 2 5 4 3 3 1 0 5 4 6 7 8 2 2 6 5 9 7 7 5 6 6 6 5 7 8 8 9 10 12 12 8 7 4 1 3 2 8 9 13 13 13 15 5 7 3 5 5 0 6 5 5 5 6 6
23 23 23 23 22 22 22 21 20 20 19 18 17 16 16 13 12 12 11 12 12 8 3 2 4 6 5 3 6 3 5 5 4 8 2 2 7 8 2 3 2 6 1 7 4 4 7 4 6 8 6 7 7 8 8 6 8 8 7 8 8 8 9 13 9 6 7 11 6 4 8 9 11 15 13 9 11 8 5 7 6 6 3 1 3 5 7 6
23 23 23 23 23 23 22 21 20 19 19 17 16 16 14 12 10 12 12 11 10 7 7 3 6 5 6 2 5 5 3 6 8 1 3 9 5 6 7 5 7 2 2 2 6 3 3 3 8 8 7 6 8 7 6 8 7 7 7 8 8 9 10 13 8 10 7 9 6 8 8 6 7 8 9 4 8 3 3 6 6 5 6 2 3 7 8 4
24 24 23 23 23 23 23 22 21 19 18 18 17 17 14 8 8 9 12 11 13 10 7 7 7 8 9 4 5 7 5 9 7 6 6 10 5 7 6 8 5 2 5 8 2 2 2 6 7 6 10 9 8 6 6 6 7 8 5 8 4 8 5 9 6 4 5 2 2 5 7 9 5 5 8 12 5 5 8 6 6 3 5 10 9 5 1 4
24 23 23 23 23 23 24 23 20 20 18 17 17 16 11 10 9 9 9 12 7 6 5 6 9 10 7 7 3 7 5 4 7 8 6 3 6 7 6 8 9 7 4 2 3 5 6 8 5 8 4 6 7 8 8 3 4 5 3 5 8 5 3 3 10 10 6 4 7 7 8 6 6 5 17 14 13 9 8 9 6 5 3 6 5 6 7 6
24 24 24 22 23 23 23 23 22 19 18 20 18 15 12 7 6 10 13 6 6 7 8 9 10 9 6 7 7 8 4 3 2 5 3 4 5 7 6 6 1 4 6 6 8 9 6 6 5 7 7 2 5 4 3 1 4 7 1 4 4 5 7 10 6 10 4 8 5 5 6 8 11 8 8 9 9 3 4 7 6 6 5 7 9 9 11 9
24 24 23 23 22 23 23 24 23 19 17 20 23 12 9 9 7 7 7 4 5 4 5 6 7 5 6 5 4 3 5 6 6 6 10 5 6 4 2 4 4 6 8 8 9 9 7 7 6 4 8 2 1 5 4 6 8 8 8 6 6 5 6 9 1 8 7 5 7 7 7 8 8 10 9 9 4 2 6 2 6 8 7 6 6 7 7 9
24 24 23 23 23 22 23 23 23 20 16 16 11 2 4 4 4 2 8 9 9 10 8 3 4 2 8 3 5 6 3 4 7 1 4 3 4 7 9 9 11 10 6 8 7 8 3 6 4 1 7 3 4 5 7 8 8 9 7 8 8 9 8 6 9 10 11 2 5 9 11 12 12 9 7 8 8 7 7 6 5 6 7 7 7 8 11 13
25 24 24 23 23 23 22 23 22 24 15 9 10 6 5 9 6 2 5 9 5 1 10 7 5 10 11 6 5 8 7 10 4 8 6 6 7 7 10 12 3 6 6 9 9 10 5 2 4 3 4 6 6 7 6 6 7 9 8 9 8 9 4 10 14 4 2 1 6 6 10 10 10 8 8 5 6 11 10 5 3 1 5 8 12 15 16 14
24 24 24 24 23 22 22 21 22 20 22 9 7 7 7 7 6 6 5 4 6 4 5 4 3 8 9 3 6 5 6 10 4 3 5 5 6 9 4 3 7 4 7 8 5 3 1 6 4 6 5 5 7 8 6 6 8 8 8 8 8 3 6 8 11 13 7 4 5 9 9 7 8 9 10 9 6 9 10 6 11 13 12 11 11 13 12 12
25 25 24 24 23 22 22 22 16 19 10 8 5 9 7 7 6 5 6 7 9 5 7 6 10 0 3 1 3 5 8 6 4 3 5 1 8 8 7 7 6 7 3 4 4 2 2 6 4 4 3 6 7 10 6 7 8 8 9 4 3 6 8 4 7 10 6 5 7 7 10 7 13 13 12 11 9 9 11 14 13 11 12 12 13 12 11 12
24 25 25 24 24 21 22 21 21 10 5 7 8 8 7 6 7 8 7 5 6 6 8 4 5 2 5 11 6 9 9 5 4 8 2 6 10 8 6 9 7 2 4 8 4 1 7 2 4 4 7 6 7 6 6 6 5 6 12 10 8 3 2 8 5 9 9 10 5 8 7 9 13 12 10 11 10 9 11 12 11 9 9 10 10 11 11 10
25 26 25 25 24 25 20 21 7 4 7 4 8 8 8 7 6 7 7 5 7 5 6 2 7 3 5 2 5 7 8 7 5 2 4 5 9 6 9 6 2 1 8 5 3 2 6 5 4 5 4 7 7 6 5 6 6 5 3 9 11 11 10 8 9 9 6 2 6 8 3 1 9 6 8 1 7 8 10 11 11 10 12 9 7 10 11 9
25 25 25 24 24 26 23 4 6 10 10 7 7 9 7 8 6 6 6 4 3 3 1 2 4 3 5 3 2 6 5 2 2 8 4 7 6 8 5 2 5 4 1 5 5 3 1 5 7 3 6 6 5 3 6 5 6 5 4 5 10 10 10 10 10 8 4 5 2 5 4 1 6 2 5 6 7 9 6 10 10 10 9 10 12 11 11 11
25 25 25 24 21 22 10 5 11 13 6 7 10 7 7 7 6 6 3 4 3 3 4 5 6 2 5 1 7 7 7 4 5 0 5 6 8 3 7 6 4 2 5 3 2 1 3 3 7 2 6 7 2 2 8 6 6 3 5 7 10 10 10 9 8 5 7 7 5 6 4 5 3 4 4 6 7 7 8 8 8 8 9 8 8 9 9 11
24 25 26 23 21 10 5 7 11 8 9 9 8 7 7 6 6 4 4 2 1 4 2 1 4 1 7 8 5 8 3 1 6 6 8 5 6 7 9 7 7 5 6 4 5 2 10 3 2 7 5 5 4 6 3 4 6 6 6 7 8 8 6 6 6 5 1 3 1 4 13 6 3 2 4 8 6 9 8 8 7 9 11 11 10 10 11 12
23 24 25 23 26 18 7 6 7 8 7 7 8 8 6 4 5 3 1 1 3 2 1 3 1 5 6 2 9 4 5 7 7 4 6 5 4 8 6 8 7 7 9 2 4 6 6 5 2 6 6 5 6 6 5 6 7 4 7 8 8 8 9 8 6 4 5 4 1 2 8 6 6 1 1 5 6 7 8 8 9 12 11 11 10 11 13 13
24 22 23 21 19 3 3 5 7 7 7 8 7 7 6 5 2 3 1 3 3 2 5 4 3 8 5 7 10 3 8 3 2 4 2 9 4 7 5 1 7 4 5 5 2 4 6 2 4 4 5 5 8 8 8 9 9 12 15 14 10 3 9 7 3 5 2 1 7 6 4 6 3 1 4 4 5 7 7 7 9 10 11 11 10 11 12 12
20 22 20 18 6 7 9 5 5 10 8 7 8 7 5 4 3 2 1 2 4 7 6 2 8 6 7 6 3 4 4 6 3 4 5 4 4 7 3 2 3 6 5 4 3 1 6 5 8 4 3 5 8 11 8 7 10 12 7 9 3 6 6 7 5 6 2 3 3 2 2 5 4 5 6 3 4 8 8 9 11 11 11 11 10 11 11 11
21 22 19 10 8 8 6 7 10 8 7 7 7 5 1 2 5 2 1 4 7 5 3 6 5 6 9 5 6 2 2 4 4 9 6 3 3 7 4 2 6 4 5 4 4 2 6 5 6 4 1 6 10 7 4 4 8 8 7 7 6 2 2 0 4 3 2 1 4 5 4 8 8 7 5 7 7 8 8 9 10 11 11 12 11 12 12 12
23 20 23 13 10 7 9 7 6 5 6 7 6 4 4 3 2 2 3 6 1 4 4 6 8 6 6 5 8 3 3 4 3 5 2 2 5 2 5 3 3 5 2 7 7 5 5 3 5 1 4 3 8 7 8 3 5 7 6 7 4 1 2 2 4 2 4 4 2 7 8 8 8 6 6 9 8 8 9 10 10 11 11 12 11 11 11 12
25 21 8 5 6 9 7 6 4 4 6 6 5 4 5 3 3 0 4 6 3 3 2 3 6 7 6 7 5 4 6 4 7 4 3 4 4 2 1 5 5 3 5 3 2 2 2 2 0 5 1 3 5 6 6 6 6 6 4 7 5 6 5 4 5 3 4 4 6 5 3 1 6 4 4 7 7 9 9 9 10 10 9 8 9 11 11 11
28 18 8 8 9 11 11 9 3 3 5 5 5 5 3 3 5 6 5 4 4 5 5 6 5 7 3 5 1 7 1 2 2 7 1 3 2 3 5 4 4 7 3 3 3 2 3 6 3 5 4 5 5 5 6 9 9 2 6 2 5 6 5 3 4 4 5 4 4 3 4 5 7 9 3 5 4 8 9 11 10 11 11 12 10 9 10 10
18 3 6 6 9 4 3 4 5 1 3 5 5 2 3 4 3 6 4 5 3 6 9 9 1 5 5 3 1 3 9 6 3 4 2 4 4 4 2 2 4 7 5 2 3 3 5 2 6 3 4 3 5 6 6 8 5 6 6 5 5 3 6 2 2 2 1 2 2 3 6 8 8 4 2 4 8 10 8 9 11 12 12 11 10 11 11 12
8 9 7 8 5 6 3 2 0 3 4 5 5 2 3 5 5 3 5 8 6 5 8 4 2 3 6 2 5 0 5 4 0 2 2 5 1 1 4 2 4 5 6 6 3 3 5 2 11 12 6 4 2 5 4 5 7 6 3 6 4 2 6 2 3 1 3 3 2 3 6 1 4 2 6 5 10 11 10 9 10 11 11 12 11 11 12 13
8 8 9 8 4 5 4 5 4 4 5 5 2 3 4 4 8 8 5 7 3 5 5 3 1 2 6 5 3 2 7 5 4 4 4 3 1 4 7 5 2 2 6 7 5 2 7 4 4 5 6 5 2 5 8 10 5 7 5 1 5 1 1 2 3 2 3 4 2 1 8 2 4 4 5 12 11 10 12 9 9 10 11 11 11 12 12 12
7 4 5 5 6 6 5 3 2 4 6 5 1 1 3 5 6 7 7 5 3 5 6 4 6 2 4 5 7 1 1 2 1 4 4 4 3 2 4 6 6 2 9 10 5 6 4 3 3 8 7 2 6 5 3 7 1 2 3 2 3 4 3 2 2 3 2 3 4 3 3 2 5 4 10 10 10 10 9 10 9 10 11 11 11 12 12 12
6 6 0 2 5 5 3 3 4 5 5 3 4 4 1 2 6 6 7 6 4 4 2 5 3 5 3 4 7 5 3 7 4 4 6 4 2 4 6 1 7 5 12 8 7 6 4 2 3 3 9 8 1 4 6 4 4 5 3 4 4 4 1 3 4 3 3 3 3 3 4 4 3 5 9 11 10 12 13 13 8 8 10 11 11 12 11 12
7 6 1 2 4 4 4 5 6 6 4 1 2 5 6 6 4 3 6 2 5 2 5 6 5 4 5 3 5 4 3 5 2 5 5 1 2 1 7 8 6 8 7 8 5 6 3 4 3 3 5 4 2 6 6 5 5 5 4 4 5 3 3 3 1 3 5 4 3 4 5 7 4 4 8 10 10 10 12 13 12 7 8 8 9 10 11 11
5 6 4 2 3 3 4 7 4 2 4 6 6 5 4 6 2 5 5 2 3 3 2 4 3 4 2 5 6 1 4 7 2 4 2 5 3 2 6 7 7 5 5 4 4 8 4 4 5 3 3 1 10 2 6 6 4 3 4 3 3 4 3 2 4 5 6 4 5 4 6 4 3 8 6 7 9 12 12 10 13 6 5 6 7 8 9 10
5 7 5 5 1 4 5 6 5 0 3 5 1 5 3 0 5 2 5 5 5 1 4 3 5 5 5 4 8 8 2 6 6 2 4 1 14 8 7 6 5 4 5 8 1 6 6 2 4 1 1 1 7 7 2 3 1 5 3 3 5 5 4 4 3 4 4 6 3 3 5 3 6 7 7 8 9 8 8 12 12 9 5 7 8 8 12 10
7 8 2 6 0 3 7 4 4 4 5 6 4 3 1 4 4 9 7 5 3 3 1 4 3 3 5 3 7 3 4 3 4 6 4 4 4 9 5 5 3 2 6 5 3 6 4 3 5 4 2 2 5 2 9 14 5 5 3 3 4 3 2 5 4 3 3 3 4 4 6 1 5 7 6 8 10 12 12 12 9 8 6 7 8 8 10 9
8 7 9 3 2 3 2 5 5 3 5 4 1 3 1 3 3 4 5 7 2 6 2 1 5 3 5 5 7 7 1 5 6 4 4 8 1 6 9 4 4 3 6 6 5 5 4 4 4 4 3 3 3 3 2 1 2 1 3 2 1 4 4 4 2 3 4 5 7 5 4 5 8 7 10 9 11 10 12 10 13 9 6 8 9 10 10 11
3 4 2 3 2 5 2 1 1 5 2 0 2 1 3 3 4 5 2 6 6 7 1 5 5 5 5 1 6 4 5 2 3 3 5 4 3 7 6 7 3 1 8 6 4 4 3 5 6 4 4 6 2 5 3 1 3 3 1 2 3 2 3 3 3 3 3 4 5 3 4 9 10 9 8 10 9 8 10 11 11 10 9 7 8 8 9 8
6 3 5 4 7 6 3 5 6 4 3 5 2 3 2 4 2 6 3 2 3 1 3 4 4 4 1 3 5 5 4 3 6 5 6 8 1 4 5 4 4 4 5 3 2 4 5 6 6 7 8 7 6 6 8 5 6 6 6 4 2 3 3 5 2 3 4 3 4 5 8 7 9 10 8 10 9 12 11 11 8 9 7 8 9 12 13 11
4 2 3 4 3 3 3 3 7 7 5 5 1 1 6 3 4 0 2 2 6 4 3 3 4 4 4 3 4 3 4 4 4 4 5 4 8 8 9 3 5 5 2 3 1 2 6 5 8 7 9 9 8 8 7 8 7 6 8 7 6 4 4 4 5 5 3 3 5 8 8 8 7 8 9 8 10 9 9 12 11 9 10 9 11 11 11 13
7 6 3 2 4 6 3 4 4 5 4 3 3 1 3 3 5 3 4 2 2 2 7 3 4 4 5 3 4 5 4 4 3 5 5 6 7 6 4 4 7 4 3 4 1 2 4 6 7 6 10 10 10 10 7 9 7 6 7 8 7 3 4 5 5 3 5 6 6 7 7 7 8 6 8 10 9 10 9 11 10 9 9 10 10 11 11 11
6 6 4 6 5 8 3 2 5 4 2 1 3 2 3 2 5 0 4 4 1 4 1 5 6 2 5 5 5 6 3 5 5 6 7 5 6 6 5 5 3 4 3 4 1 1 1 1 6 8 6 9 9 8 7 7 8 9 7 8 9 7 6 5 6 4 5 6 4 5 6 8 4 5 7 10 10 9 8 9 10 7 8 7 10 11 11 10
3 3 3 6 7 3 1 7 4 3 4 4 5 1 3 4 4 6 6 3 4 4 3 5 1 5 4 5 6 8 7 6 5 7 5 4 6 4 4 4 8 5 2 4 3 3 4 5 8 8 6 6 7 5 6 7 9 9 10 7 7 9 6 6 6 1 2 4 4 5 6 5 6 8 10 9 9 10 10 10 9 6 7 8 10 11 11 11
4 2 3 4 5 2 8 1 5 1 3 1 0 4 2 2 1 3 3 3 5 5 5 6 2 3 5 8 7 6 4 7 7 7 6 6 8 9 5 7 4 5 6 5 3 6 5 7 5 5 7 6 8 2 3 6 7 8 7 9 12 11 7 3 5 5 6 2 1 4 3 5 8 8 8 9 9 10 10 9 7 6 7 9 10 11 10 11
Wind_Direction
353 352 350 349 347 346 345 344 341 338 336 337 334 331 332 330 328 325 323 321 317 315 314 310 310 310 309 316 323 323 323 301 293 233 222 55 59 134 348 337 339 323 325 303 278 264 238 223 217 218 227 226 215 232 237 216 236 212 219 235 251 253 252 253 263 268 280 281 282 52 29 15 268 255 264 265 273 260 267 270 287 292 303 299 260 232 125 128
353 351 349 348 347 345 345 341 339 337 335 333 333 331 330 329 326 323 321 320 318 313 311 311 307 309 312 315 321 326 315 298 273 267 61 100 161 56 359 333 305 289 312 282 267 251 247 220 215 198 232 231 206 233 214 203 200 233 235 236 243 244 256 266 264 283 337 353 336 280 87 66 304 340 337 311 300 302 282 244 228 268 277 265 265 279 158 146
352 350 349 347 346 345 343 340 338 336 333 332 329 330 329 325 325 321 319 318 315 311 307 306 308 308 310 317 317 313 302 288 266 118 88 101 87 359 341 286 282 281 268 284 298 316 295 316 308 201 232 251 187 241 168 220 177 222 254 243 237 246 255 265 316 326 312 355 311 342 354 336 44 243 324 272 288 292 282 293 295 246 223 254 252 230 244 201
351 350 349 348 346 344 342 340 337 334 333 331 328 326 326 325 321 319 317 314 311 309 306 304 307 311 311 310 328 312 284 278 278 95 104 157 111 215 264 270 265 273 279 270 271 281 291 282 276 276 263 246 208 230 174 211 211 195 225 251 262 232 33 266 45 310 345 343 332 318 338 323 318 309 311 309 283 273 281 285 282 284 297 277 228 276 272 238
351 350 349 347 346 343 341 340 336 334 332 328 325 322 321 323 320 316 314 310 307 305 305 304 306 311 312 315 310 294 304 281 85 89 107 138 171 245 250 258 260 275 283 298 292 252 257 259 244 245 258 252 251 194 237 255 195 279 253 265 264 275 299 323 323 45 329 325 321 311 307 303 317 297 294 282 281 288 304 280 281 259 249 264 288 267 45 62
351 350 349 347 345 344 342 339 337 333 329 327 323 320 322 322 319 314 311 307 303 302 302 306 308 310 314 315 303 284 285 357 102 110 128 137 193 256 256 253 266 270 272 281 279 278 244 232 252 233 229 251 254 234 207 237 142 243 241 255 268 270 280 304 319 337 79 319 303 302 307 316 299 303 289 293 283 279 277 303 303 301 329 347 348 329 355 44
351 350 349 348 346 344 341 339 335 333 327 325 322 322 323 321 317 313 308 305 302 299 302 306 309 312 315 300 265 256 259 87 148 132 119 190 225 256 256 266 263 259 260 261 255 245 230 249 237 240 235 241 257 245 262 214 108 230 288 288 282 1 331 315 287 0 347 281 276 288 308 283 295 289 279 256 251 257 257 259 306 314 319 327 320 322 318 50
351 350 349 347 346 343 340 338 335 330 327 323 323 323 322 320 316 311 307 302 300 297 300 305 308 310 335 301 261 245 236 91 116 136 145 186 228 229 236 255 271 280 284 309 333 298 324 258 269 311 256 253 17 299 96 25 262 272 257 247 254 235 244 283 282 276 285 306 284 268 271 277 273 264 279 278 280 280 307 288 286 292 282 269 251 280 325 19
351 349 348 347 345 342 340 337 333 330 326 323 323 321 322 319 315 310 304 299 295 294 294 299 300 307 287 286 268 289 101 87 115 145 166 187 218 238 256 262 220 271 304 267 296 281 281 292 240 349 328 300 357 247 260 220 248 246 240 252 349 308 274 263 269 261 254 265 292 291 269 259 255 261 263 273 270 285 290 311 261 256 338 339 297 293 347 337
348 349 348 346 344 342 339 336 331 328 326 323 320 322 319 317 312 307 303 297 292 289 290 295 292 295 283 261 273 261 92 124 160 137 164 258 224 265 253 267 337 288 297 72 242 261 317 359 326 336 287 277 261 278 285 323 298 2 308 311 319 313 294 273 265 279 280 266 260 248 252 257 249 237 249 238 252 241 247 238 257 291 255 238 356 333 318 287
349 348 347 345 343 341 337 334 330 327 326 322 319 320 317 316 311 306 301 296 290 287 290 284 310 286 270 259 277 11 275 267 29 158 120 211 259 255 317 355 6 286 293 244 280 345 320 278 348 308 261 321 333 236 236 264 322 313 293 290 284 285 276 273 278 276 284 264 254 265 268 264 265 277 267 281 246 174 322 16 342 295 350 4 345 334 336 328
348 346 345 343 342 338 336 332 329 326 324 321 319 317 315 313 310 304 301 298 292 289 283 276 249 267 272 279 282 53 268 57 139 314 169 187 227 321 358 266 280 292 282 307 73 148 315 318 298 269 288 30 256 325 258 187 288 299 282 272 262 255 249 228 240 244 222 250 248 351 319 278 250 228 241 235 250 97 143 248 287 331 346 7 352 326 272 268
347 345 343 342 341 338 333 331 329 325 324 320 317 317 314 312 308 304 300 298 278 263 259 259 252 255 297 289 75 67 294 108 178 113 253 223 1 189 165 89 255 284 309 296 338 38 7 297 273 269 286 292 276 282 42 309 284 270 237 250 262 256 241 210 196 203 213 187 75 259 259 265 226 222 216 222 195 67 21 3 297 226 47 21 308 320 347 298
347 344 343 341 339 335 331 329 328 325 322 319 317 317 313 308 307 302 298 283 292 307 281 243 268 271 273 299 86 60 245 244 93 218 209 54 244 186 182 191 192 244 114 296 301 289 284 234 267 269 290 268 281 6 263 222 224 252 257 223 260 250 245 167 173 181 259 113 220 214 265 274 289 176 203 85 72 53 346 312 308 257 302 291 289 322 303 319
346 344 342 340 338 334 331 327 327 324 322 319 316 317 309 303 304 303 297 294 270 266 265 250 236 256 236 125 137 113 2 303 248 55 322 285 345 235 183 216 188 270 276 241 275 196 247 238 253 254 243 210 253 252 248 235 202 236 245 225 217 260 79 127 198 152 268 126 250 259 257 278 42 111 67 88 77 60 323 270 244 258 255 281 315 279 268 278
345 344 341 340 337 334 329 327 325 324 322 320 315 312 304 288 288 291 291 279 293 309 267 261 217 221 274 210 120 144 196 233 99 344 44 293 264 333 55 332 22 248 204 209 228 316 237 276 259 282 280 184 243 247 251 241 224 202 235 300 23 320 157 170 195 174 214 14 174 245 291 281 152 137 153 102 172 206 241 235 262 311 255 238 230 216 222 267
344 343 341 339 337 333 329 324 324 322 323 318 316 306 290 280 271 280 275 277 282 231 237 259 270 199 260 75 171 186 213 126 334 205 199 133 304 3 255 227 236 203 188 321 304 226 231 238 219 241 251 269 245 254 273 315 333 319 257 312 342 301 319 115 176 193 156 220 260 217 241 238 172 169 136 166 176 191 214 213 216 242 325 300 293 292 265 260
344 342 341 338 336 333 328 323 321 323 324 320 313 290 286 281 305 295 275 222 242 241 233 255 265 311 219 231 223 53 332 90 352 7 315 17 339 241 259 269 331 300 255 223 190 247 192 241 205 265 224 219 308 324 298 314 269 267 6 273 254 253 270 315 300 114 230 150 262 294 277 295 309 325 297 262 223 157 319 319 280 247 265 338 339 315 318 308
342 341 339 337 335 333 327 322 319 323 329 317 294 280 246 250 261 248 268 213 215 188 226 199 229 238 48 40 43 264 55 11 271 208 201 256 195 307 299 314 301 242 229 239 180 243 169 264 206 15 337 262 283 308 315 324 324 302 305 319 294 273 228 229 215 134 254 236 216 222 265 287 282 254 252 284 12 335 272 289 328 332 331 294 294 283 282 301
342 340 338 336 334 331 327 321 318 321 342 330 327 310 217 226 180 204 223 232 225 279 344 80 256 140 165 5 12 19 314 215 215 301 318 150 262 235 252 219 233 193 244 244 153 224 13 261 266 67 223 280 330 341 321 317 306 301 291 264 262 265 275 287 260 231 139 182 242 263 260 257 261 280 297 282 292 287 313 312 326 313 280 285 278 341 18 11
340 340 337 334 333 328 326 321 319 319 331 303 289 289 346 7 338 61 343 235 270 286 303 39 328 338 32 308 355 303 237 206 234 125 346 24 294 295 250 221 130 283 310 335 289 63 243 257 324 235 7 333 325 317 281 289 274 267 272 261 267 275 301 11 327 324 45 296 282 289 294 277 266 273 278 293 278 273 256 254 289 23 14 30 31 17 14 11
338 338 336 334 330 329 321 322 316 319 318 280 254 298 38 25 349 333 293 296 187 231 229 261 298 223 106 348 290 310 284 269 158 264 156 279 261 259 89 285 309 300 206 195 272 240 40 316 193 300 337 346 291 271 295 279 278 276 271 270 264 289 13 353 306 300 302 300 306 289 275 292 305 340 342 325 36 11 54 44 51 36 30 30 20 27 4 1
338 337 336 332 330 326 324 314 315 313 315 310 18 358 14 344 331 348 288 274 281 194 217 219 252 52 16 31 214 312 316 281 213 171 54 7 281 255 295 289 227 230 350 287 278 194 18 274 78 330 327 302 287 275 225 261 265 259 261 306 326 234 252 205 277 308 297 241 263 300 307 310 10 12 26 315 89 55 62 62 56 49 33 23 13 12 11 352
338 337 335 332 328 327 320 317 308 286 231 288 28 12 337 341 343 341 321 270 308 167 250 92 343 331 37 315 60 295 268 339 251 85 68 292 312 35 285 286 333 352 313 272 222 177 177 219 304 302 294 271 296 323 268 273 323 329 20 344 310 310 320 294 195 200 238 267 345 30 18 8 334 31 356 28 57 73 52 58 51 35 50 31 3 6 0 356
336 336 334 331 329 324 320 317 303 0 330 314 22 6 343 340 351 344 319 289 231 233 42 96 298 70 17 244 235 243 275 216 339 65 6 300 331 311 352 350 186 2 279 312 332 352 323 1 294 263 298 266 266 307 14 12 293 12 49 275 291 312 317 324 308 301 292 207 41 56 41 38 311 28 8 63 49 53 39 38 27 26 3 5 351 352 343 345
335 334 333 331 331 327 309 296 8 329 304 52 352 3 334 338 358 316 301 268 299 128 317 181 303 100 335 196 293 313 1 332 101 45 339 11 332 295 294 250 307 303 158 273 297 328 180 90 287 359 292 326 279 204 30 355 313 351 1 328 300 308 311 297 290 274 273 297 49 128 184 296 302 353 47 89 146 64 38 29 28 6 12 5 356 352 351 332
334 332 331 329 330 334 328 12 319 301 356 13 359 347 342 322 4 319 282 241 241 322 335 65 285 85 266 254 291 322 275 89 236 180 289 112 323 326 293 338 227 195 263 285 313 216 325 35 327 332 265 259 192 280 44 -0 320 270 263 332 305 285 281 287 298 293 269 127 37 267 152 142 139 30 27 7 52 55 31 29 16 17 353 16 354 342 333 323
330 331 329 325 322 337 287 299 311 355 4 353 338 341 341 338 315 282 266 277 268 191 233 111 22 91 248 10 6 298 358 207 257 60 291 352 269 247 249 293 288 326 1 324 286 257 266 313 301 313 325 293 19 10 347 345 310 321 346 328 319 306 297 284 289 286 135 145 116 274 219 138 73 129 114 52 49 35 18 27 10 12 7 1 6 352 330 337
329 329 329 323 320 300 243 245 303 326 355 350 343 341 337 340 281 281 281 3 58 280 56 92 80 254 339 315 248 212 298 99 310 104 266 182 223 309 275 56 321 316 282 232 260 211 223 336 22 316 314 360 1 320 279 271 292 289 275 262 252 256 279 301 276 262 359 247 302 239 115 109 108 346 0 53 23 20 9 9 15 17 3 1 5 347 349 339
328 326 326 328 319 192 183 207 253 328 356 356 346 328 313 275 253 238 172 258 306 103 308 328 272 14 299 273 275 164 279 129 333 324 78 318 171 199 261 127 292 283 288 236 294 66 38 210 284 315 348 340 316 302 283 278 269 268 256 248 229 287 331 291 13 329 67 236 217 262 360 110 114 304 52 31 14 14 6 12 17 3 7 359 360 349 342 346
323 323 320 328 295 347 319 275 22 355 -0 354 337 318 282 252 246 237 316 69 267 52 298 304 8 2 359 323 308 163 301 3 234 181 222 212 272 257 8 237 35 271 241 271 234 106 208 173 233 119 256 311 307 293 266 234 264 274 324 332 53 53 7 311 69 348 76 322 75 8 37 32 182 137 89 68 50 38 15 8 8 -0 2 2 350 348 347 336
323 318 313 315 275 327 295 333 342 344 1 333 317 287 277 276 192 301 335 180 252 17 6 330 2 11 301 312 271 326 29 189 360 317 337 325 24 347 36 351 328 336 261 222 229 210 217 240 49 248 200 313 323 338 229 332 298 336 348 344 57 359 69 80 315 49 268 229 4 45 97 103 76 85 119 73 36 35 25 19 11 4 358 3 356 349 347 344
320 316 311 279 254 250 254 308 323 339 328 315 303 247 253 281 338 6 340 6 91 312 44 304 11 316 326 315 297 24 93 267 126 265 332 338 283 329 148 328 34 323 337 352 332 24 286 34 249 112 266 27 320 354 9 3 328 310 12 341 19 138 238 300 175 187 165 102 345 83 61 66 109 116 51 56 44 30 21 21 13 14 4 7 358 359 356 346
315 316 309 273 241 240 273 293 294 343 320 305 279 279 238 293 43 341 37 44 43 300 7 10 276 259 273 326 13 315 273 45 312 258 207 287 219 216 180 63 344 19 100 304 316 2 246 359 240 307 160 2 353 5 15 318 321 315 40 352 43 10 6 331 12 11 17 10 96 91 202 75 189 60 36 47 42 39 20 20 25 21 15 11 4 4 354 351
311 300 244 266 252 256 252 255 354 31 298 286 284 288 312 28 14 2 354 2 350 333 308 168 318 324 181 213 332 256 334 303 6 325 302 348 347 340 35 306 63 325 90 233 186 237 313 246 177 334 23 318 356 348 0 342 293 346 346 55 34 18 341 344 23 349 2 16 328 66 64 100 117 212 90 35 37 42 26 2 4 19 5 6 10 4 1 355
306 253 191 261 251 217 249 322 116 109 294 292 297 329 35 0 4 2 38 274 348 340 342 311 52 256 239 117 359 315 122 298 98 288 5 226 90 353 313 339 19 344 343 12 324 280 181 297 317 155 265 5 350 313 8 339 353 335 311 34 40 7 315 308 180 260 121 260 245 87 140 101 84 57 20 5 20 29 24 16 1 358 360 6 4 357 356 350
329 311 245 242 264 14 344 285 105 258 275 293 302 25 353 44 341 8 38 332 31 319 281 315 115 301 327 152 133 160 115 260 332 55 286 13 16 243 297 82 44 326 6 342 257 9 309 295 271 273 236 145 323 316 296 8 329 308 1 42 343 277 337 302 337 157 219 252 13 134 98 163 189 101 269 26 37 346 19 25 9 354 359 358 355 357 353 353
314 300 305 288 306 336 357 61 53 265 270 302 325 328 35 64 43 40 38 322 21 265 305 288 123 278 329 337 95 28 91 278 107 223 247 146 259 6 302 317 25 237 344 8 315 301 289 269 250 267 318 138 193 248 25 315 45 5 8 57 311 24 330 25 284 302 338 331 344 126 135 122 23 25 339 38 1 11 359 10 1 359 1 356 354 354 355 352
272 279 299 42 356 338 49 70 285 284 283 295 300 140 33 57 61 10 62 343 311 319 302 19 332 9 332 305 355 251 317 270 30 271 278 115 267 148 329 36 292 291 40 356 319 334 319 298 299 321 309 358 3 321 135 270 75 79 288 40 63 269 349 332 358 320 281 308 313 327 304 81 38 359 346 358 360 354 353 347 7 3 359 355 352 353 357 352
284 279 283 353 321 345 35 309 293 274 271 296 20 69 334 40 24 339 50 345 7 316 1 326 81 307 227 341 319 327 106 289 314 341 289 96 279 103 301 130 346 24 359 340 318 340 306 294 278 308 303 13 350 292 15 9 2 0 8 19 16 358 55 302 264 312 336 323 311 315 303 108 78 14 345 352 359 352 353 351 14 3 3 358 355 352 351 352
304 282 280 296 356 342 314 270 272 253 246 292 83 46 43 40 7 36 39 109 301 135 314 320 309 279 358 337 250 320 303 237 208 266 339 185 305 173 63 21 12 1 346 303 322 7 326 328 314 343 314 32 300 252 330 19 1 1 352 34 341 0 1 341 327 124 346 322 328 310 327 98 343 29 336 10 345 350 358 350 345 12 1 5 354 349 342 344
296 292 85 22 23 325 321 299 277 42 41 46 54 26 62 315 327 353 317 189 278 320 88 307 280 307 270 259 302 106 293 287 261 287 169 285 18 265 89 63 20 336 324 317 322 51 4 313 294 327 349 164 257 275 35 13 358 13 1 55 347 2 4 346 316 1 330 327 313 302 304 71 351 4 353 15 351 351 347 350 327 4 24 7 353 349 347 342
266 319 88 3 38 311 300 279 265 131 77 56 187 66 6 53 324 208 242 38 324 45 300 274 349 324 13 327 330 320 327 298 274 269 356 136 71 58 62 61 66 327 308 288 358 36 334 279 298 103 186 242 291 346 74 12 166 262 144 47 357 28 5 350 335 347 326 332 328 341 303 90 48 342 341 9 4 337 336 340 339 356 58 13 355 3 336 348
316 303 149 145 116 272 278 323 11 35 84 81 352 100 131 350 12 334 335 66 335 313 330 302 293 203 293 206 261 282 10 299 358 334 332 328 68 94 75 69 30 335 314 37 318 20 296 40 342 305 250 192 213 246 11 313 0 317 35 29 4 346 352 0 307 272 289 2 329 324 313 63 44 332 354 12 343 340 331 342 339 1 47 7 8 359 333 347
296 268 254 213 163 246 345 5 341 10 93 88 166 240 197 195 24 331 307 304 144 278 332 216 294 305 258 341 314 311 249 252 303 334 14 305 50 103 74 53 66 267 61 57 356 317 295 300 305 321 321 315 347 325 355 338 84 253 33 359 268 6 355 339 314 349 299 26 339 307 320 349 347 350 6 348 349 329 332 355 332 357 31 21 14 340 338 344
315 327 29 339 24 311 324 75 22 336 29 65 281 278 334 146 153 144 349 307 38 322 319 302 227 237 286 116 262 234 256 144 271 321 289 250 193 115 117 112 145 328 54 16 349 322 294 308 290 289 295 306 287 291 284 299 297 285 0 306 302 345 6 308 304 269 311 347 311 23 345 328 326 354 8 343 319 307 357 354 328 3 354 30 2 335 335 341
310 311 3 339 328 261 20 25 16 340 19 1 264 13 249 319 199 157 97 279 142 338 321 317 310 290 328 331 288 280 253 263 196 254 280 290 296 118 88 112 100 96 33 322 256 290 264 281 275 289 281 284 305 271 292 282 276 291 277 244 253 279 301 296 306 321 348 302 285 48 350 331 328 337 349 321 333 6 3 328 345 357 13 20 6 334 335 1
267 60 303 73 299 335 1 47 347 350 342 251 253 189 287 301 289 240 167 86 340 148 282 164 298 305 298 269 298 281 267 240 272 265 273 245 293 152 131 150 145 118 172 246 279 299 310 297 295 295 293 300 296 296 291 286 277 258 275 310 280 241 249 260 272 277 306 293 305 337 337 326 334 304 330 332 349 355 338 321 30 344 22 3 2 336 345 351
339 335 68 30 290 304 28 2 347 342 310 324 294 260 269 279 307 6 337 114 141 264 196 260 246 231 267 265 252 275 274 288 269 305 298 332 314 326 307 96 98 140 183 273 281 322 320 261 303 308 302 301 298 290 291 282 268 279 272 249 266 256 247 271 272 281 293 289 303 309 323 312 286 305 345 330 19 359 341 332 346 340 10 358 343 337 348 359
356 352 350 333 282 299 8 339 305 282 305 99 295 251 238 270 283 207 164 234 167 251 313 302 309 250 229 242 253 257 267 279 325 290 328 338 310 308 315 295 280 188 224 231 192 183 280 300 7 318 310 298 292 292 295 285 291 283 287 283 279 280 269 266 265 278 292 279 302 317 304 284 285 7 334 5 359 339 325 326 339 349 354 347 343 342 347 357
355 334 331 297 300 312 322 252 249 244 278 199 247 99 268 272 323 348 312 317 308 298 234 246 255 270 248 264 249 257 274 275 277 285 288 295 279 11 336 18 10 330 227 290 282 238 195 286 300 296 292 292 290 316 297 296 279 260 255 258 263 254 243 264 260 312 277 294 296 284 268 292 339 338 17 349 341 329 334 336 337 359 331 356 343 349 342 352
268 259 243 289 282 324 280 320 252 302 264 334 158 128 250 332 357 39 297 263 250 300 349 340 4 313 250 239 261 271 316 320 296 272 250 244 247 266 265 282 289 292 307 287 292 274 280 300 309 309 299 299 311 225 293 301 293 279 265 255 232 228 220 275 293 249 258 303 268 261 321 328 319 9 351 337 333 333 335 340 341 342 360 354 346 344 347 343